{"data":{"norad_id":66716,"intl_designator":"2025-276BC","name":"FLOCK 4H-13","alt_names":[],"object_type":"PAYLOAD","status":"ACTIVE","operator":null,"country":"US","launch_date":"2025-11-28","launch_site_code":"AFWTR","launch_vehicle":null,"mission":null,"orbit_class":"UNKNOWN","rcs_meters":null,"size_class":null,"mass_kg":null,"dimensions":null,"purposes":["earth_obs"],"wikipedia_slug":null,"has_3d_model":false,"image_url":null,"decayed_at":null,"tle_current":{"epoch":"2026-05-25T03:09:07.790688Z","epoch_age_seconds":73821,"freshness":"FRESH","line1":"1 66716U 25276BC  26145.13134017  .00005499  00000+0  25556-3 0  9998","line2":"2 66716  97.4226 219.3242 0002252  68.4909 291.6567 15.20389760 26935","mean_motion":15.2038976,"eccentricity":0.0002252,"inclination_deg":97.4226,"raan_deg":219.3242,"arg_perigee_deg":68.4909,"mean_anomaly_deg":291.6567,"bstar":0.00025556,"rev_number":2693,"period_min":94.712555812004,"perigee_km":503.11406049013,"apogee_km":506.21407409084,"semimajor_km":6882.8010672905,"source":"CELESTRAK","updated_at":"2026-05-25T13:38:13.348157Z"}}}